Humidity-temperature Sensor

Selected Measurement Type: Air Temperature

 
Air Temperature [°C]     6 entries per hour
Showing data from 4/25/2015 (00:00:00 Z) to 4/24/2015 (00:01:00 Z)
Previous Next [ Day | 3-Days | 7-Days ]
First Last
Prev [ Day | 3-Days | 7-Days ] Next
First Last

Start Time:     :
End Time:     :     
Time (in GMT) :00 :50 :40 :30 :20 :10
Previous Next [ Day | 3-Days | 7-Days ]
First Last
Prev [ Day | 3-Days | 7-Days ] Next
First Last


123 => good data
MM => data is determined as missing
-- => data not received/configured
Back to Top Back to Top
4/25/2015 00:00 to 23:10 27.32 27.14 27.28 27.15 27.01 27.86
4/24/2015 23:00 to 22:10 27.77 27.38 28.03 28.06 28.06 27.96
4/24/2015 22:00 to 21:10 27.95 28.05 27.82 27.78 27.91 27.87
4/24/2015 21:00 to 20:10 27.87 27.93 27.71 27.90 27.98 27.74
4/24/2015 20:00 to 19:10 27.85 27.83 27.93 27.85 27.79 27.74
4/24/2015 19:00 to 18:10 27.80 27.93 27.79 27.75 27.73 27.56
4/24/2015 18:00 to 17:10 27.69 27.63 27.74 27.53 27.82 27.88
4/24/2015 17:00 to 16:10 27.88 27.73 27.90 27.97 27.82 27.50
4/24/2015 16:00 to 15:10 26.94 26.43 26.16 26.36 27.69 27.85
4/24/2015 15:00 to 14:10 27.59 27.78 27.69 27.64 27.37 27.27
4/24/2015 14:00 to 13:10 27.17 27.26 26.89 26.70 26.08 26.97
4/24/2015 13:00 to 12:10 27.03 26.79 26.47 26.33 26.30 26.55
4/24/2015 12:00 to 11:10 27.38 27.30 26.91 26.67 26.97 27.03
4/24/2015 11:00 to 10:10 27.05 27.24 27.06 26.91 26.85 26.64
4/24/2015 10:00 to 9:10 26.41 26.19 25.99 26.89 26.76 26.90
4/24/2015 09:00 to 8:10 27.16 26.24 27.26 27.29 27.25 27.24
4/24/2015 08:00 to 7:10 27.17 27.23 27.12 27.18 27.44 27.52
4/24/2015 07:00 to 6:10 27.29 27.24 27.10 27.01 26.51 26.01
4/24/2015 06:00 to 5:10 26.09 26.25 26.83 26.89 26.71 26.89
4/24/2015 05:00 to 4:10 26.72 26.70 26.66 26.68 26.64 26.29
4/24/2015 04:00 to 3:10 26.89 26.49 26.64 26.46 26.27 26.42
4/24/2015 03:00 to 2:10 27.66 27.76 27.70 27.20 26.80 27.76
4/24/2015 02:00 to 1:10 28.12 28.04 27.92 27.94 27.90 27.98
4/24/2015 01:00 to 0:10 28.09 28.02 27.96 28.02 28.05 28.03